Location: Davidschlag
(48.4333°N, 14.2833°E)
Time: 02:57:34
(UTC+00:00)

COSMO-SKYMED 1 - Pass Details

Date: 27 February 2020
Orbit: 621 x 623 km, 97.9° (Epoch: 05 April)

Event Time Altitude Azimuth Distance (km) Brightness Sun altitude
Rises 17:06:48 0° 15° (NNE) 2,917 5.8 -4.8°
Reaches altitude 10° 17:09:01 10° 18° (NNE) 2,005 4.9 -5.1°
Maximum altitude 17:13:22 70° 102° (ESE) 665 2.6 -5.9°
Drops below altitude 10° 17:17:41 10° 187° (S) 1,987 5.3 -6.6°
Sets 17:19:52 0° 189° (S) 2,889 6.2 -6.9°
